Regional Weather Roundup
Issued by NWS

Home | Current Version | Previous Version | Graphics & Text | Print | Product List | Glossary On
Versions: 1 2 3 4 5 6 7 8 9 10 11 12 13 14 15 16 17 18 19 20 21 22 23 24 25 26 27 28 29 30 31 32 33 34 35 36 37 38 39 40 41 42 43 44 45 46 47 48 49 50
000
ASUS43 KDMX 231101
RWRIA

WEATHER ROUNDUP FOR IOWA
NATIONAL WEATHER SERVICE DES MOINES IA
600 AM CDT WED MAY 23 2018

NOTE: "FAIR" INDICATES FEW OR NO CLOUDS BELOW 12,000 FEET WITH NO
SIGNIFICANT WEATHER AND/OR OBSTRUCTIONS TO VISIBILITY.

* - THESE STATIONS ARE NOT NWS STATIONS...THUS NOT UNDER NWS
QUALITY CONTROL.  THEY ALSO DO NOT REPORT WEATHER SUCH
AS PRECIPITATION OR FOG.

IAZ001>003-012>014-020>022-031>034-043>046-231200-
   NORTHWEST IOWA

CITY           SKY/WX    TMP DP  RH WIND       PRES   REMARKS
CARROLL *      CLEAR    N/A N/A N/A S6        30.06S
CHEROKEE *     PTCLDY    64  63  96 E7        30.05R
DENISON *      CLEAR     64  63  94 CALM      30.06S
LE MARS *      CLEAR     66  63  88 E7        30.01S
ORANGE CITY *  CLEAR     64  63  94 E8        30.04R
SHELDON *      PTCLDY    66  64  94 SE15      30.03S
SIOUX CITY     CLEAR     63  61  93 E8        30.01R
SPENCER        CLOUDY    66  58  75 E14       30.08R
STORM LAKE *   PTCLDY    63  63 100 SE10      30.07R
$$

IAZ055>058-069>071-079>083-090>094-231200-
   SOUTHWEST IOWA

CITY           SKY/WX    TMP DP  RH WIND       PRES   REMARKS
ATLANTIC *     CLEAR     66  63  88 CALM      30.06R
AUDUBON *      CLEAR     61  57  88 CALM      30.08R
CLARINDA *     CLEAR     63  59  88 CALM      30.08R
COUNCIL BLFS * CLEAR     64  64 100 SE9       30.04R
CRESTON *      CLEAR     63  59  88 SE7       30.10R
HARLAN  *      CLEAR     64  63  94 SE3       30.09R
LAMONI         CLEAR     65  60  84 SE6       30.08R
RED OAK *      CLEAR     66  63  88 CALM      30.06R
SHENANDOAH *   CLEAR     64  63  94 CALM      30.06R
$$

IAZ047>049-059>061-072>074-084-231200-
   CENTRAL IOWA

CITY           SKY/WX    TMP DP  RH WIND       PRES   REMARKS
AMES           CLOUDY    64  61  90 SE5       30.08R
ANKENY *       PTCLDY    64  61  88 SE3       30.10R
BOONE *        PTCLDY    64  63  94 SE10      30.08R
CHARITON *     PTCLDY    63  63 100 SE7       30.09R
DES MOINES     PTCLDY    67  62  84 SE8       30.08R
GRINNELL*      MOCLDY    62  59  91 E9        30.13R
KNOXVILLE *    CLOUDY    64  61  88 E7        30.09R
MARSHALLTOWN   CLOUDY    64  61  90 SE10      30.10R
NEWTON *       PTCLDY    64  61  88 SE9G16    30.11R
PELLA *        CLOUDY    64  60  88 E5        30.11R
PERRY *        FAIR      64  62  96 SE8       30.08R
$$

IAZ004>006-015-016-023>025-035-036-231200-
   NORTH CENTRAL IOWA

CITY           SKY/WX    TMP DP  RH WIND       PRES   REMARKS
ALGONA *       CLOUDY    64  59  82 E8G16     30.11R
CLARION *      CLOUDY    64  61  88 E16       30.10R FOG
ESTHERVILLE    LGT RAIN  62  59  90 SE10      30.09R
FORT DODGE *   CLOUDY    65  63  93 E10       30.09R
MASON CITY     LGT RAIN  64  63  96 VRB3      30.13S FOG
FOREST CITY *  RAIN      63  63 100 NW5       30.13R
WEBSTER CITY * CLOUDY    64  64 100 E16       30.08R
IOWA FALLS *   RAIN      65  63  94 N6        30.13R
$$

IAZ007>011-017>019-026>030-037>042-050>054-066-231200-
   NORTHEAST IOWA

CITY           SKY/WX    TMP DP  RH WIND       PRES   REMARKS
CEDAR RAPIDS   MOCLDY    61  60  97 E6        30.13R
CHARLES CITY * LGT RAIN  63  59  88 S8        30.14S
CLINTON *        N/A    N/A N/A N/A E5        30.16R FOG
DECORAH *      CLOUDY    59  59 100 S6        30.14R
DUBUQUE        MOCLDY    58  55  90 S6        30.15R
MONTICELLO *   CLOUDY    61  61 100 SE6       30.14R
OELWEIN *      MOCLDY    63  59  88 SE9       30.14R
WATERLOO       FAIR      63  60  90 CALM      30.13R
$$

IAZ064-065-067-068-078-231200-
   EAST CENTRAL IOWA

CITY           SKY/WX    TMP DP  RH WIND       PRES   REMARKS
DAVENPORT      FAIR      59  58  96 SE5       30.16R FOG
IOWA CITY      MOCLDY    63  60  90 E3        30.15R
MT. PLEASANT * PTCLDY    61  61 100 E5        30.13R
MUSCATINE *    FAIR      63  59  88 CALM      30.14R
QUAD CITIES    FAIR      59  58  96 E3        30.14R
$$

IAZ062-063-075>077-085>089-095>099-231200-
   SOUTHEAST IOWA

CITY           SKY/WX    TMP DP  RH WIND       PRES   REMARKS
BURLINGTON     PTCLDY    64  59  83 E3        30.12R
FAIRFIELD *    MOCLDY    63  61  94 SE5       30.12R
FORT MADISON * CLEAR     64  61  88 E3        30.13R
KEOKUK *       MOCLDY    64  61  88 SE7       30.11R
OSKALOOSA *    FAIR      63  60  90 SE7       30.12R
CENTERVILLE *    N/A     59  59 100 CALM      30.11S
OTTUMWA        PTCLDY    63  60  90 E7        30.11R
WASHINGTON *   CLEAR     59  59 100 E6        30.15R FOG
$$

ABBREVIATIONS USED IN REMARKS
   TC - TEMPERATURES IN CELSIUS
  WCI - WIND CHILL INDEX
   HX - HEAT INDEX
  VSB - VISIBILITY
$$




USA.gov is the U.S. government's official web portal to all federal, state and local government web resources and services.